Reno, NV

6:43 PM PDT on April 23, 2018 (GMT -0700)
Reno-Tahoe International

Weather History for KRNO - September, 2013

Change the Weather History Date:

Wednesday, September 18, 2013

  Actual Average Record
Temperature  
Mean Temperature 59 °F 65 °F  
Max Temperature 73 °F 81 °F 93 °F (1991)
Min Temperature 45 °F 48 °F 20 °F (1965)
Degree Days  
Heating Degree Days 6 3  
Month to date heating degree days 6 30  
Since 1 July heating degree days 6 40  
Cooling Degree Days 0 2  
Month to date cooling degree days 138 69  
Year to date cooling degree days 1171 815  
Growing Degree Days 9 (Base 50)    
Moisture  
Dew Point 34 °F    
Average Humidity 45    
Maximum Humidity 70    
Minimum Humidity 19    
Precipitation  
Precipitation 0.00 in 0.01 in 0.59 in (1989)
Month to date precipitation T 0.16  
Year to date precipitation 3.04 4.85  
Snow  
Snow 0.00 in 0.00 in 0.00 in ()
Month to date snowfall 0.0 0.0  
Since 1 July snowfall T 0.0  
Since 1 September snowfall 0.0 0.0  
Snow Depth 0.00 in    
Sea Level Pressure  
Sea Level Pressure 29.96 in    
Wind  
Wind Speed 4 mph (ENE)    
Max Wind Speed 13 mph    
Max Gust Speed 15 mph    
Visibility 10 miles    
Events      
T = Trace of Precipitation, MM = Missing Value Source: NWS Daily Summary

Daily Weather History Graph

Daily Weather History Graph

Search for Another Location

Airport or City:

Astronomy

Sep. 18, 2013 Rise Set
Actual Time 6:43 AM PDT 7:02 PM PDT
Civil Twilight 6:16 AM PDT 7:28 PM PDT
Nautical Twilight 5:44 AM PDT 8:00 PM PDT
Astronomical Twilight 5:12 AM PDT 8:32 PM PDT
Moon 6:28 PM PDT (9/18) 5:51 AM PDT (9/18)
Length of Visible Light 13h 12m
Length of Day
12h 18m
Waxing Gibbous, 99% of the Moon is Illuminated
Sep 18
Waxing Gibbous
Sep 19
Full
Sep 26
Last Quarter
Oct 4
New
Oct 11
First Quarter

Hourly Weather History & Observations

Time (PDT) Temp. Windchill Dew Point Humidity Pressure Visibility Wind Dir Wind Speed Gust Speed Precip Events Conditions
12:55 AM 55.0 °F - 39.0 °F 55% 29.91 in 10.0 mi NNW 6.9 mph - N/A   Scattered Clouds
1:55 AM 54.0 °F - 37.9 °F 55% 29.91 in 10.0 mi North 10.4 mph - N/A   Scattered Clouds
2:55 AM 52.0 °F - 36.0 °F 54% 29.91 in 10.0 mi NNW 5.8 mph - N/A   Partly Cloudy
3:55 AM 51.1 °F - 36.0 °F 56% 29.93 in 10.0 mi NNW 3.5 mph - N/A   Partly Cloudy
4:55 AM 46.9 °F - 36.0 °F 66% 29.95 in 10.0 mi Calm Calm - N/A   Partly Cloudy
5:55 AM 45.0 °F 43.5 °F 36.0 °F 71% 29.97 in 10.0 mi SSE 3.5 mph - N/A   Clear
6:55 AM 46.0 °F - 35.1 °F 66% 30.00 in 10.0 mi Calm Calm - N/A   Scattered Clouds
7:55 AM 48.0 °F - 35.1 °F 61% 30.01 in 10.0 mi Calm Calm - N/A   Scattered Clouds
8:55 AM 51.1 °F - 36.0 °F 56% 30.03 in 10.0 mi Calm Calm - N/A   Mostly Cloudy
9:55 AM 55.0 °F - 37.0 °F 51% 30.04 in 10.0 mi Calm Calm - N/A   Scattered Clouds
10:55 AM 59.0 °F - 37.0 °F 44% 30.01 in 10.0 mi ESE 3.5 mph - N/A   Scattered Clouds
11:55 AM 63.0 °F - 37.0 °F 38% 29.99 in 10.0 mi ESE 6.9 mph - N/A   Scattered Clouds
12:55 PM 64.0 °F - 37.0 °F 37% 29.97 in 10.0 mi Variable 3.5 mph - N/A   Clear
1:55 PM 66.9 °F - 35.1 °F 31% 29.93 in 10.0 mi SE 3.5 mph - N/A   Partly Cloudy
2:55 PM 71.1 °F - 33.1 °F 25% 29.91 in 10.0 mi Variable 3.5 mph - N/A   Partly Cloudy
3:55 PM 72.0 °F - 28.0 °F 20% 29.89 in 10.0 mi Calm Calm - N/A   Partly Cloudy
4:55 PM 72.0 °F - 28.9 °F 20% 29.89 in 10.0 mi South 6.9 mph - N/A   Partly Cloudy
5:55 PM 72.0 °F - 27.0 °F 19% 29.90 in 10.0 mi Calm Calm - N/A   Partly Cloudy
6:55 PM 70.0 °F - 28.0 °F 21% 29.91 in 10.0 mi NE 6.9 mph - N/A   Partly Cloudy
7:55 PM 66.0 °F - 30.9 °F 27% 29.94 in 10.0 mi NNE 11.5 mph - N/A   Clear
8:55 PM 64.0 °F - 30.0 °F 28% 29.97 in 10.0 mi North 6.9 mph - N/A   Clear
9:55 PM 61.0 °F - 30.0 °F 31% 29.99 in 10.0 mi South 3.5 mph - N/A   Clear
10:55 PM 57.9 °F - 33.1 °F 39% 29.98 in 10.0 mi Calm Calm - N/A   Clear
11:55 PM 55.0 °F - 32.0 °F 42% 29.99 in 10.0 mi Calm Calm - N/A   Clear